Regional Weather Roundup
Issued by NWS

Home | Current Version | Previous Version | Text Only | Print | Product List | Glossary On
Versions: 1 2 3 4 5 6 7 8 9 10 11 12 13 14 15 16 17 18 19 20 21 22 23 24 25 26 27 28 29 30 31 32 33 34 35 36 37 38 39 40 41 42 43 44 45 46 47 48 49 50
000
ASUS43 KTOP 101508
RWRKS

WEATHER ROUNDUP FOR KANSAS
NATIONAL WEATHER SERVICE GOODLAND KS
1000 AM CDT THU JUL 10 2014

NOTE:  "FAIR" INDICATES FEW OR NO CLOUDS BELOW 12,000 FEET WITH NO
SIGNIFICANT WEATHER AND/OR OBSTRUCTIONS TO VISIBILITY.

KSZ001>006-013>018-027>032-041>047-101600-
NORTHWEST KANSAS

CITY           SKY/WX    TMP DP  RH WIND       PRES   REMARKS
GOODLAND       MOSUNNY   70  63  78 S21G29    30.02F
HAYS           MOSUNNY   73  63  68 S18G26    29.98S
HILL CITY      SUNNY     76  61  59 S17G24    29.99S
RUSSELL        MOSUNNY   75  65  70 S16       29.98R
$$

KSZ061>065-074>080-084>089-101600-
SOUTHWEST KANSAS

CITY           SKY/WX    TMP DP  RH WIND       PRES   REMARKS
DODGE CITY     SUNNY     72  59  63 SE23G31   30.03S
ELKHART          N/A     82  58  43 S14         N/A
GARDEN CITY    CLOUDY    68  62  81 SE23G30   30.03R
GREAT BEND     PTSUNNY   70  63  78 S20G26    29.99R
LIBERAL        SUNNY     75  64  69 SE17      30.04R
PRATT          MOSUNNY   68  59  73 S13G23    30.02F
$$

KSZ066>073-081>083-090>101-101600-
SOUTHEAST KANSAS

CITY           SKY/WX    TMP DP  RH WIND       PRES   REMARKS
CHANUTE        LGT RAIN  68  65  90 SE7       30.08F
COFFEYVILLE    LGT RAIN  68  68 100 SE8       30.06F FOG
HUTCHINSON     CLOUDY    70  63  78 S10       30.01S
MEDICINE LODGE   N/A     70  63  78 SE14G22   30.02F
NEWTON         MOSUNNY   70  61  73 SE14      30.05S
PARSONS        LGT RAIN  67  64  90 SE9       30.06F
WICHITA INTL   CLOUDY    69  67  93 SE8       30.01R
WICHITA JABRA  PTSUNNY   72  65  78 SE13G22   30.00F
WICHITA MCCONL CLOUDY    71  68  92 SE16      30.01F
WINFIELD       CLOUDY    68  65  90 SE7       30.00F
$$

KSZ007>012-019>026-033>040-048>060-102>105-101600-
NORTHEAST KANSAS

CITY           SKY/WX    TMP DP  RH WIND       PRES   REMARKS
CONCORDIA      SUNNY     74  67  78 S10       30.02R
EMPORIA        PTSUNNY   73  64  73 S16       30.04S
LAWRENCE       PTSUNNY   76  64  66 S12       30.08S
MANHATTAN      MOSUNNY   76  65  68 SE9       30.03R
MARYSVILLE     SUNNY     75  66  73 SE8       30.02S
OLATHE IND     PTSUNNY   75  63  66 SE10      30.10S
OLATHE EXE     PTSUNNY   72  63  73 S12       30.10R
SALINA         MOSUNNY   76  65  68 S14       30.01R
TOPEKA BILLARD PTSUNNY   76  64  66 SE13      30.06S
TOPEKA FORBES  PTSUNNY   76  64  66 SE15      30.06R
$$



USA.gov is the U.S. government's official web portal to all federal, state and local government web resources and services.